General Aviation Weather

Text Reports

Enter one or more of the following location identifiers separated by a space:

Zip Code, Four-Character ICAO or Three-Character IATA airport codes.

METAR - Aviation Routine Weather Report
KSKX - Taos, New Mexico
Updated at 2:55 AM GMT on November 28, 2014 (7:55 PM MST):
METAR KSKX 280255Z AUTO 00000KT 10SM CLR 05/M06 A3038 RMK AO1 52003
TAF - Terminal Area Forecast
KSKX - Taos, New Mexico
Updated at 2:55 AM GMT on November 28, 2014 (7:55 PM MST):
No TAF is currently available for this location.
Decoded:
No decoded TAF is available.
PIREP - Pilot Weather Report
KSKX - Taos, New Mexico
Updated at 2:55 AM GMT on November 28, 2014 (7:55 PM MST):
No PIREP is currently available for this location.
AIRMET - Airmens Meteorological Information
KSKX - Taos, New Mexico
Updated at 2:55 AM GMT on November 28, 2014 (7:55 PM MST):
No AIRMET is currently available for this location.
SIGMET - Significant Meteorological Information
KSKX - Taos, New Mexico
Updated at 2:55 AM GMT on November 28, 2014 (7:55 PM MST):
No SIGMET is currently available for this location.
NOTAM - Notice to Airmen
KSKX - Taos, New Mexico
Updated at 2:55 AM GMT on November 28, 2014 (7:55 PM MST):
No NOTAM is currently available for this location.
Forecast Area
KSKX - Taos, New Mexico
Updated at 2:55 AM GMT on November 28, 2014 (7:55 PM MST):
No NOTAM is currently available for this location.
Aviation Weather Maps